Time,TemperatureF,DewpointF,PressureIn,WindDirection,WindDirectionDegrees,WindSpeedMPH,WindSpeedGustMPH,Humidity,HourlyPrecipIn,Conditions,Clouds,dailyrainin,SoftwareType,DateUTC
2013-05-31 00:00:00,67.4,63.7,30.04,South,170,0.0,3.0,88,0.00,,,0.00,Wunderground v.1.15,2013-05-31 04:00:00,
2013-05-31 00:05:00,67.2,63.8,30.04,South,170,0.0,3.0,89,0.00,,,0.00,Wunderground v.1.15,2013-05-31 04:05:00,
2013-05-31 00:10:00,67.0,63.6,30.04,South,170,1.0,3.0,89,0.00,,,0.00,Wunderground v.1.15,2013-05-31 04:10:00,
2013-05-31 00:20:00,66.3,63.3,30.04,South,170,1.0,3.0,90,0.00,,,0.00,Wunderground v.1.15,2013-05-31 04:20:00,
2013-05-31 00:25:00,66.2,63.5,30.04,South,170,1.0,3.0,91,0.00,,,0.00,Wunderground v.1.15,2013-05-31 04:25:00,
2013-05-31 00:30:00,66.1,63.4,30.04,South,170,1.0,3.0,91,0.00,,,0.00,Wunderground v.1.15,2013-05-31 04:30:00,
2013-05-31 00:35:00,65.8,63.1,30.04,South,169,1.0,3.0,91,0.00,,,0.00,Wunderground v.1.15,2013-05-31 04:35:00,
2013-05-31 00:45:00,65.8,63.1,30.04,South,170,1.0,3.0,91,0.00,,,0.00,Wunderground v.1.15,2013-05-31 04:45:00,
2013-05-31 00:50:00,65.7,63.0,30.04,South,170,1.0,3.0,91,0.00,,,0.00,Wunderground v.1.15,2013-05-31 04:50:00,
2013-05-31 01:00:00,65.4,62.7,30.04,South,170,1.0,1.0,91,0.00,,,0.00,Wunderground v.1.15,2013-05-31 05:00:00,
2013-05-31 01:10:00,65.0,62.6,30.03,South,170,0.0,3.0,92,0.00,,,0.00,Wunderground v.1.15,2013-05-31 05:10:00,
2013-05-31 01:20:00,64.8,62.7,30.03,South,170,1.0,3.0,93,0.00,,,0.00,Wunderground v.1.15,2013-05-31 05:20:00,
2013-05-31 01:25:00,64.7,62.6,30.04,South,170,2.0,3.0,93,0.00,,,0.00,Wunderground v.1.15,2013-05-31 05:25:00,
2013-05-31 01:35:00,64.6,62.5,30.03,South,170,1.0,3.0,93,0.00,,,0.00,Wunderground v.1.15,2013-05-31 05:35:00,
2013-05-31 01:45:00,64.1,62.0,30.03,South,170,0.0,3.0,93,0.00,,,0.00,Wunderground v.1.15,2013-05-31 05:45:00,
2013-05-31 01:55:00,64.1,62.3,30.03,South,170,0.0,3.0,94,0.00,,,0.00,Wunderground v.1.15,2013-05-31 05:55:00,
2013-05-31 02:05:00,63.9,62.1,30.03,South,170,0.0,3.0,94,0.00,,,0.00,Wunderground v.1.15,2013-05-31 06:05:00,
2013-05-31 02:15:00,63.8,62.0,30.03,South,170,0.0,3.0,94,0.00,,,0.00,Wunderground v.1.15,2013-05-31 06:15:00,
2013-05-31 02:20:00,63.8,62.0,30.03,South,170,0.0,3.0,94,0.00,,,0.00,Wunderground v.1.15,2013-05-31 06:20:00,
2013-05-31 02:30:00,63.6,61.8,30.03,South,170,0.0,3.0,94,0.00,,,0.00,Wunderground v.1.15,2013-05-31 06:30:00,
2013-05-31 02:40:00,63.4,61.9,30.03,South,170,0.0,3.0,95,0.00,,,0.00,Wunderground v.1.15,2013-05-31 06:40:00,
2013-05-31 02:50:00,63.3,61.8,30.03,South,170,1.0,3.0,95,0.00,,,0.00,Wunderground v.1.15,2013-05-31 06:50:00,
2013-05-31 03:00:00,63.0,61.5,30.03,South,170,0.0,3.0,95,0.00,,,0.00,Wunderground v.1.15,2013-05-31 07:00:00,
2013-05-31 03:10:00,62.9,61.4,30.03,South,170,0.0,3.0,95,0.00,,,0.00,Wunderground v.1.15,2013-05-31 07:10:00,
2013-05-31 03:20:00,62.8,61.3,30.03,South,170,0.0,3.0,95,0.00,,,0.00,Wunderground v.1.15,2013-05-31 07:20:00,
2013-05-31 03:30:00,62.7,61.2,30.03,South,170,0.0,3.0,95,0.00,,,0.00,Wunderground v.1.15,2013-05-31 07:30:00,
2013-05-31 03:40:00,62.5,61.3,30.03,South,170,0.0,3.0,96,0.00,,,0.00,Wunderground v.1.15,2013-05-31 07:40:00,
2013-05-31 03:45:00,62.4,61.2,30.03,South,170,0.0,3.0,96,0.00,,,0.00,Wunderground v.1.15,2013-05-31 07:45:00,
2013-05-31 03:55:00,62.3,61.1,30.03,South,170,0.0,3.0,96,0.00,,,0.00,Wunderground v.1.15,2013-05-31 07:55:00,
2013-05-31 04:05:00,62.1,60.9,30.02,South,170,1.0,3.0,96,0.00,,,0.00,Wunderground v.1.15,2013-05-31 08:05:00,
2013-05-31 04:15:00,62.1,60.9,30.03,South,170,0.0,3.0,96,0.00,,,0.00,Wunderground v.1.15,2013-05-31 08:15:00,
2013-05-31 04:25:00,61.9,60.7,30.03,South,170,0.0,3.0,96,0.00,,,0.00,Wunderground v.1.15,2013-05-31 08:25:00,
2013-05-31 04:35:00,62.0,60.8,30.03,South,170,0.0,3.0,96,0.00,,,0.00,Wunderground v.1.15,2013-05-31 08:35:00,
2013-05-31 04:40:00,61.9,60.7,30.04,South,170,0.0,3.0,96,0.00,,,0.00,Wunderground v.1.15,2013-05-31 08:40:00,
2013-05-31 04:50:00,61.6,60.4,30.04,South,170,1.0,1.0,96,0.00,,,0.00,Wunderground v.1.15,2013-05-31 08:50:00,
2013-05-31 05:00:00,61.8,60.9,30.03,South,170,1.0,3.0,97,0.00,,,0.00,Wunderground v.1.15,2013-05-31 09:00:00,
2013-05-31 05:05:00,61.8,60.9,30.04,South,170,1.0,3.0,97,0.00,,,0.00,Wunderground v.1.15,2013-05-31 09:05:00,
2013-05-31 05:15:00,62.0,61.1,30.04,South,170,1.0,3.0,97,0.00,,,0.00,Wunderground v.1.15,2013-05-31 09:15:00,
2013-05-31 05:25:00,62.0,61.1,30.03,South,170,1.0,3.0,97,0.00,,,0.00,Wunderground v.1.15,2013-05-31 09:25:00,
2013-05-31 05:35:00,61.9,61.0,30.04,South,170,1.0,3.0,97,0.00,,,0.00,Wunderground v.1.15,2013-05-31 09:35:00,
2013-05-31 05:45:00,62.1,61.2,30.04,South,170,1.0,3.0,97,0.00,,,0.00,Wunderground v.1.15,2013-05-31 09:45:00,
2013-05-31 05:55:00,62.3,61.1,30.04,South,170,1.0,3.0,96,0.00,,,0.00,Wunderground v.1.15,2013-05-31 09:55:00,
2013-05-31 06:00:00,62.4,61.2,30.04,South,170,1.0,1.0,96,0.00,,,0.00,Wunderground v.1.15,2013-05-31 10:00:00,
2013-05-31 06:10:00,62.6,61.4,30.04,South,170,1.0,1.0,96,0.00,,,0.00,Wunderground v.1.15,2013-05-31 10:10:00,
2013-05-31 06:15:00,62.8,61.6,30.04,South,170,1.0,1.0,96,0.00,,,0.00,Wunderground v.1.15,2013-05-31 10:15:00,
2013-05-31 06:25:00,63.2,61.7,30.04,South,170,1.0,1.0,95,0.00,,,0.00,Wunderground v.1.15,2013-05-31 10:25:00,
2013-05-31 06:35:00,63.7,61.9,30.05,South,170,1.0,1.0,94,0.00,,,0.00,Wunderground v.1.15,2013-05-31 10:35:00,
2013-05-31 06:40:00,64.2,62.4,30.04,South,170,1.0,1.0,94,0.00,,,0.00,Wunderground v.1.15,2013-05-31 10:40:00,
2013-05-31 06:50:00,66.0,63.3,30.05,South,176,1.0,1.0,91,0.00,,,0.00,Wunderground v.1.15,2013-05-31 10:50:00,
2013-05-31 07:00:00,68.0,64.6,30.05,South,176,1.0,1.0,89,0.00,,,0.00,Wunderground v.1.15,2013-05-31 11:00:00,
2013-05-31 07:05:00,68.5,65.1,30.05,South,176,1.0,2.0,89,0.00,,,0.00,Wunderground v.1.15,2013-05-31 11:05:00,
2013-05-31 07:15:00,69.7,66.0,30.05,South,176,0.0,2.0,88,0.00,,,0.00,Wunderground v.1.15,2013-05-31 11:15:00,
2013-05-31 07:25:00,70.6,65.9,30.05,South,176,1.0,2.0,85,0.00,,,0.00,Wunderground v.1.15,2013-05-31 11:25:00,
2013-05-31 07:35:00,71.4,65.6,30.05,South,185,2.0,2.0,82,0.00,,,0.00,Wunderground v.1.15,2013-05-31 11:35:00,
2013-05-31 07:45:00,72.3,66.8,30.04,South,173,2.0,2.0,83,0.00,,,0.00,Wunderground v.1.15,2013-05-31 11:45:00,
2013-05-31 07:55:00,73.4,67.2,30.04,SSE,168,2.0,2.0,81,0.00,,,0.00,Wunderground v.1.15,2013-05-31 11:55:00,
2013-05-31 08:00:00,74.0,67.4,30.04,SSW,200,2.0,2.0,80,0.00,,,0.00,Wunderground v.1.15,2013-05-31 12:00:00,
2013-05-31 08:10:00,75.1,67.8,30.04,SSW,209,2.0,2.0,78,0.00,,,0.00,Wunderground v.1.15,2013-05-31 12:10:00,
2013-05-31 08:20:00,76.0,67.1,30.04,SW,219,2.0,2.0,74,0.00,,,0.00,Wunderground v.1.15,2013-05-31 12:20:00,
2013-05-31 08:25:00,76.4,67.9,30.04,SW,219,2.0,3.0,75,0.00,,,0.00,Wunderground v.1.15,2013-05-31 12:25:00,
2013-05-31 08:35:00,77.4,69.6,30.03,SSE,162,2.0,2.0,77,0.00,,,0.00,Wunderground v.1.15,2013-05-31 12:35:00,
2013-05-31 08:45:00,78.3,68.9,30.03,South,173,2.0,4.0,73,0.00,,,0.00,Wunderground v.1.15,2013-05-31 12:45:00,
2013-05-31 08:55:00,79.2,69.4,30.03,SSW,200,2.0,2.0,72,0.00,,,0.00,Wunderground v.1.15,2013-05-31 12:55:00,
2013-05-31 09:05:00,80.1,70.7,30.03,SSE,156,2.0,2.0,73,0.00,,,0.00,Wunderground v.1.15,2013-05-31 13:05:00,
2013-05-31 09:15:00,81.0,69.0,30.03,SSW,199,3.0,4.0,67,0.00,,,0.00,Wunderground v.1.15,2013-05-31 13:15:00,
2013-05-31 09:20:00,81.4,68.5,30.03,SW,220,2.0,3.0,65,0.00,,,0.00,Wunderground v.1.15,2013-05-31 13:20:00,
2013-05-31 09:30:00,82.0,68.6,30.03,WSW,253,3.0,3.0,64,0.00,,,0.00,Wunderground v.1.15,2013-05-31 13:30:00,
2013-05-31 09:40:00,82.4,68.1,30.03,WSW,245,3.0,3.0,62,0.00,,,0.00,Wunderground v.1.15,2013-05-31 13:40:00,
2013-05-31 09:50:00,82.9,69.0,30.03,WSW,245,3.0,3.0,63,0.00,,,0.00,Wunderground v.1.15,2013-05-31 13:50:00,
2013-05-31 10:00:00,83.3,68.0,30.02,WSW,252,3.0,6.0,60,0.00,,,0.00,Wunderground v.1.15,2013-05-31 14:00:00,
2013-05-31 10:10:00,83.4,68.1,30.02,WSW,257,4.0,4.0,60,0.00,,,0.00,Wunderground v.1.15,2013-05-31 14:10:00,
2013-05-31 10:20:00,84.0,68.1,30.02,SW,223,3.0,6.0,59,0.00,,,0.00,Wunderground v.1.15,2013-05-31 14:20:00,
2013-05-31 10:30:00,84.1,68.7,30.02,SSW,194,4.0,7.0,60,0.00,,,0.00,Wunderground v.1.15,2013-05-31 14:30:00,
2013-05-31 10:40:00,84.4,69.0,30.02,SSW,209,4.0,4.0,60,0.00,,,0.00,Wunderground v.1.15,2013-05-31 14:40:00,
2013-05-31 10:45:00,84.5,67.6,30.02,WNW,301,4.0,5.0,57,0.00,,,0.00,Wunderground v.1.15,2013-05-31 14:45:00,
2013-05-31 10:50:00,84.9,68.5,30.02,SSW,213,4.0,5.0,58,0.00,,,0.00,Wunderground v.1.15,2013-05-31 14:50:00,
2013-05-31 11:00:00,84.7,66.7,30.02,West,265,4.0,4.0,55,0.00,,,0.00,Wunderground v.1.15,2013-05-31 15:00:00,
2013-05-31 11:10:00,85.1,67.6,30.01,SW,229,4.0,4.0,56,0.00,,,0.00,Wunderground v.1.15,2013-05-31 15:10:00,
2013-05-31 11:20:00,85.4,67.9,30.01,WSW,257,4.0,4.0,56,0.00,,,0.00,Wunderground v.1.15,2013-05-31 15:20:00,
2013-05-31 11:30:00,85.6,66.5,30.01,WSW,251,4.0,4.0,53,0.00,,,0.00,Wunderground v.1.15,2013-05-31 15:30:00,
2013-05-31 11:40:00,85.8,65.0,30.01,West,279,3.0,3.0,50,0.00,,,0.00,Wunderground v.1.15,2013-05-31 15:40:00,
2013-05-31 11:50:00,85.9,67.3,30.01,SSW,198,4.0,4.0,54,0.00,,,0.00,Wunderground v.1.15,2013-05-31 15:50:00,
2013-05-31 12:00:00,86.3,67.7,30.01,SSW,205,3.0,4.0,54,0.00,,,0.00,Wunderground v.1.15,2013-05-31 16:00:00,
2013-05-31 12:10:00,86.6,67.4,30.00,South,183,3.0,5.0,53,0.00,,,0.00,Wunderground v.1.15,2013-05-31 16:10:00,
2013-05-31 12:15:00,86.4,67.2,30.00,SSW,200,4.0,5.0,53,0.00,,,0.00,Wunderground v.1.15,2013-05-31 16:15:00,
2013-05-31 12:25:00,86.5,66.2,30.00,WSW,244,3.0,4.0,51,0.00,,,0.00,Wunderground v.1.15,2013-05-31 16:25:00,
2013-05-31 12:35:00,86.9,67.2,30.00,SW,219,3.0,4.0,52,0.00,,,0.00,Wunderground v.1.15,2013-05-31 16:35:00,
2013-05-31 12:45:00,85.2,65.0,30.00,SW,221,4.0,4.0,51,0.00,,,0.00,Wunderground v.1.15,2013-05-31 16:45:00,
2013-05-31 12:55:00,87.1,65.0,29.99,West,261,3.0,4.0,48,0.00,,,0.00,Wunderground v.1.15,2013-05-31 16:55:00,
2013-05-31 13:05:00,87.4,65.9,29.99,South,188,3.0,4.0,49,0.00,,,0.00,Wunderground v.1.15,2013-05-31 17:05:00,
2013-05-31 13:10:00,87.0,64.9,29.99,South,186,4.0,4.0,48,0.00,,,0.00,Wunderground v.1.15,2013-05-31 17:10:00,
2013-05-31 13:20:00,87.8,66.3,29.99,West,265,4.0,4.0,49,0.00,,,0.00,Wunderground v.1.15,2013-05-31 17:20:00,
2013-05-31 13:30:00,88.1,64.7,29.99,SSW,206,5.0,6.0,46,0.00,,,0.00,Wunderground v.1.15,2013-05-31 17:30:00,
2013-05-31 13:35:00,87.8,64.4,29.99,SSW,206,5.0,6.0,46,0.00,,,0.00,Wunderground v.1.15,2013-05-31 17:35:00,
2013-05-31 13:45:00,87.6,63.6,29.98,South,191,3.0,4.0,45,0.00,,,0.00,Wunderground v.1.15,2013-05-31 17:45:00,
2013-05-31 13:55:00,88.2,66.6,29.98,SW,223,4.0,7.0,49,0.00,,,0.00,Wunderground v.1.15,2013-05-31 17:55:00,
2013-05-31 14:00:00,87.8,66.3,29.97,West,268,4.0,4.0,49,0.00,,,0.00,Wunderground v.1.15,2013-05-31 18:00:00,
2013-05-31 14:10:00,88.1,67.1,29.97,West,277,3.0,6.0,50,0.00,,,0.00,Wunderground v.1.15,2013-05-31 18:10:00,
2013-05-31 14:15:00,87.6,66.1,29.97,SW,223,4.0,7.0,49,0.00,,,0.00,Wunderground v.1.15,2013-05-31 18:15:00,
2013-05-31 14:20:00,87.9,67.5,29.97,SW,223,4.0,4.0,51,0.00,,,0.00,Wunderground v.1.15,2013-05-31 18:20:00,
2013-05-31 14:25:00,88.9,66.7,29.97,West,275,4.0,4.0,48,0.00,,,0.00,Wunderground v.1.15,2013-05-31 18:25:00,
2013-05-31 14:30:00,88.2,65.4,29.97,WSW,240,4.0,4.0,47,0.00,,,0.00,Wunderground v.1.15,2013-05-31 18:30:00,
2013-05-31 14:40:00,88.4,65.0,29.96,SSE,163,4.0,4.0,46,0.00,,,0.00,Wunderground v.1.15,2013-05-31 18:40:00,
2013-05-31 14:50:00,88.6,67.0,29.96,WSW,242,4.0,5.0,49,0.00,,,0.00,Wunderground v.1.15,2013-05-31 18:50:00,
2013-05-31 15:00:00,88.7,67.1,29.95,WNW,288,4.0,4.0,49,0.00,,,0.00,Wunderground v.1.15,2013-05-31 19:00:00,
2013-05-31 15:10:00,89.2,67.5,29.95,SW,227,3.0,3.0,49,0.00,,,0.00,Wunderground v.1.15,2013-05-31 19:10:00,
2013-05-31 15:20:00,89.2,67.5,29.95,WSW,257,3.0,3.0,49,0.00,,,0.00,Wunderground v.1.15,2013-05-31 19:20:00,
2013-05-31 15:30:00,89.2,65.7,29.94,SSW,207,4.0,4.0,46,0.00,,,0.00,Wunderground v.1.15,2013-05-31 19:30:00,
2013-05-31 15:40:00,89.2,65.7,29.94,WSW,250,4.0,4.0,46,0.00,,,0.00,Wunderground v.1.15,2013-05-31 19:40:00,
2013-05-31 15:45:00,89.5,65.4,29.93,WSW,237,4.0,4.0,45,0.00,,,0.00,Wunderground v.1.15,2013-05-31 19:45:00,
2013-05-31 15:55:00,89.7,65.5,29.93,SSW,198,4.0,7.0,45,0.00,,,0.00,Wunderground v.1.15,2013-05-31 19:55:00,
2013-05-31 16:05:00,89.5,64.0,29.92,West,259,4.0,5.0,43,0.00,,,0.00,Wunderground v.1.15,2013-05-31 20:05:00,
2013-05-31 16:10:00,89.5,64.7,29.92,SW,227,4.0,4.0,44,0.00,,,0.00,Wunderground v.1.15,2013-05-31 20:10:00,
2013-05-31 16:20:00,89.7,65.5,29.92,West,270,3.0,3.0,45,0.00,,,0.00,Wunderground v.1.15,2013-05-31 20:20:00,
2013-05-31 16:30:00,89.9,66.3,29.91,WNW,286,3.0,3.0,46,0.00,,,0.00,Wunderground v.1.15,2013-05-31 20:30:00,
2013-05-31 16:40:00,89.4,64.0,29.91,WSW,251,4.0,4.0,43,0.00,,,0.00,Wunderground v.1.15,2013-05-31 20:40:00,
2013-05-31 16:50:00,89.9,65.7,29.91,WSW,240,3.0,4.0,45,0.00,,,0.00,Wunderground v.1.15,2013-05-31 20:50:00,
2013-05-31 17:00:00,87.9,62.6,29.90,SSW,202,4.0,4.0,43,0.00,,,0.00,Wunderground v.1.15,2013-05-31 21:00:00,
2013-05-31 17:05:00,87.8,65.1,29.90,SW,221,3.0,4.0,47,0.00,,,0.00,Wunderground v.1.15,2013-05-31 21:05:00,
2013-05-31 17:15:00,88.4,66.2,29.90,WSW,241,2.0,3.0,48,0.00,,,0.00,Wunderground v.1.15,2013-05-31 21:15:00,
2013-05-31 17:25:00,88.6,63.2,29.90,NW,310,2.0,2.0,43,0.00,,,0.00,Wunderground v.1.15,2013-05-31 21:25:00,
2013-05-31 17:30:00,89.0,65.5,29.90,NNW,331,1.0,2.0,46,0.00,,,0.00,Wunderground v.1.15,2013-05-31 21:30:00,
2013-05-31 17:40:00,88.7,67.1,29.90,WSW,254,1.0,2.0,49,0.00,,,0.00,Wunderground v.1.15,2013-05-31 21:40:00,
2013-05-31 17:50:00,88.8,65.4,29.89,NNW,341,1.0,2.0,46,0.00,,,0.00,Wunderground v.1.15,2013-05-31 21:50:00,
2013-05-31 18:00:00,89.1,64.3,29.89,WNW,294,2.0,2.0,44,0.00,,,0.00,Wunderground v.1.15,2013-05-31 22:00:00,
2013-05-31 18:10:00,88.7,67.7,29.89,West,279,1.0,2.0,50,0.00,,,0.00,Wunderground v.1.15,2013-05-31 22:10:00,
2013-05-31 18:20:00,88.4,64.4,29.89,NW,314,1.0,2.0,45,0.00,,,0.00,Wunderground v.1.15,2013-05-31 22:20:00,
2013-05-31 18:25:00,88.1,66.5,29.89,NNW,332,1.0,2.0,49,0.00,,,0.00,Wunderground v.1.15,2013-05-31 22:25:00,
2013-05-31 18:36:00,87.5,69.3,29.89,NE,34,1.0,3.0,55,0.00,,,0.00,Wunderground v.1.15,2013-05-31 22:36:00,
2013-05-31 18:45:00,85.8,70.8,29.89,North,11,2.0,2.0,61,0.00,,,0.00,Wunderground v.1.15,2013-05-31 22:45:00,
2013-05-31 18:50:00,85.4,69.9,29.89,NNE,28,2.0,3.0,60,0.00,,,0.00,Wunderground v.1.15,2013-05-31 22:50:00,
2013-05-31 19:00:00,84.3,68.9,29.89,North,5,4.0,4.0,60,0.00,,,0.00,Wunderground v.1.15,2013-05-31 23:00:00,
2013-05-31 19:10:00,83.5,68.6,29.89,NNE,14,3.0,3.0,61,0.00,,,0.00,Wunderground v.1.15,2013-05-31 23:10:00,
2013-05-31 19:20:00,82.2,69.3,29.89,North,5,1.0,2.0,65,0.00,,,0.00,Wunderground v.1.15,2013-05-31 23:20:00,
2013-05-31 19:30:00,81.0,70.7,29.89,North,5,0.0,2.0,71,0.00,,,0.00,Wunderground v.1.15,2013-05-31 23:30:00,
2013-05-31 19:40:00,80.2,70.8,29.89,North,5,0.0,2.0,73,0.00,,,0.00,Wunderground v.1.15,2013-05-31 23:40:00,
2013-05-31 19:50:00,78.8,70.6,29.89,NE,43,1.0,1.0,76,0.00,,,0.00,Wunderground v.1.15,2013-05-31 23:50:00,
2013-05-31 20:00:00,78.1,69.9,29.89,NE,43,0.0,2.0,76,0.00,,,0.00,Wunderground v.1.15,2013-06-01 00:00:00,
2013-05-31 20:10:00,77.0,69.6,29.89,East,101,1.0,2.0,78,0.00,,,0.00,Wunderground v.1.15,2013-06-01 00:10:00,
2013-05-31 20:15:00,76.8,69.4,29.89,East,101,1.0,2.0,78,0.00,,,0.00,Wunderground v.1.15,2013-06-01 00:15:00,
2013-05-31 20:25:00,76.4,69.4,29.90,East,101,1.0,2.0,79,0.00,,,0.00,Wunderground v.1.15,2013-06-01 00:25:00,
2013-05-31 20:35:00,75.9,69.6,29.90,East,101,0.0,2.0,81,0.00,,,0.00,Wunderground v.1.15,2013-06-01 00:35:00,
2013-05-31 20:45:00,75.5,69.6,29.90,East,101,0.0,2.0,82,0.00,,,0.00,Wunderground v.1.15,2013-06-01 00:45:00,
2013-05-31 20:55:00,74.8,69.6,29.90,East,101,2.0,2.0,84,0.00,,,0.00,Wunderground v.1.15,2013-06-01 00:55:00,
2013-05-31 21:05:00,74.3,69.8,29.91,SE,130,1.0,2.0,86,0.00,,,0.00,Wunderground v.1.15,2013-06-01 01:05:00,
2013-05-31 21:10:00,74.3,69.8,29.90,SE,130,1.0,1.0,86,0.00,,,0.00,Wunderground v.1.15,2013-06-01 01:10:00,
2013-05-31 21:15:00,74.0,69.5,29.91,SE,130,0.0,2.0,86,0.00,,,0.00,Wunderground v.1.15,2013-06-01 01:15:00,
2013-05-31 21:25:00,73.3,69.9,29.91,SSE,151,0.0,2.0,89,0.00,,,0.00,Wunderground v.1.15,2013-06-01 01:25:00,
2013-05-31 21:35:00,72.7,69.6,29.91,South,178,1.0,2.0,90,0.00,,,0.00,Wunderground v.1.15,2013-06-01 01:35:00,
2013-05-31 21:45:00,72.2,68.4,29.91,South,178,1.0,2.0,88,0.00,,,0.00,Wunderground v.1.15,2013-06-01 01:45:00,
2013-05-31 21:55:00,71.9,68.8,29.91,South,178,0.0,2.0,90,0.00,,,0.00,Wunderground v.1.15,2013-06-01 01:55:00,
2013-05-31 22:05:00,71.9,68.8,29.91,South,178,0.0,2.0,90,0.00,,,0.00,Wunderground v.1.15,2013-06-01 02:05:00,
2013-05-31 22:15:00,72.1,69.3,29.92,NW,324,0.0,2.0,91,0.00,,,0.00,Wunderground v.1.15,2013-06-01 02:15:00,
2013-05-31 22:25:00,72.1,69.3,29.93,NNW,335,2.0,2.0,91,0.00,,,0.00,Wunderground v.1.15,2013-06-01 02:25:00,
2013-05-31 22:35:00,72.5,67.7,29.92,NE,36,3.0,4.0,85,0.00,,,0.00,Wunderground v.1.15,2013-06-01 02:35:00,
2013-05-31 22:45:00,73.2,67.0,29.92,North,5,4.0,4.0,81,0.00,,,0.00,Wunderground v.1.15,2013-06-01 02:45:00,
2013-05-31 22:55:00,73.2,67.4,29.92,North,5,1.0,2.0,82,0.00,,,0.00,Wunderground v.1.15,2013-06-01 02:55:00,
2013-05-31 23:05:00,72.4,67.3,29.92,WSW,250,1.0,2.0,84,0.00,,,0.00,Wunderground v.1.15,2013-06-01 03:05:00,
2013-05-31 23:10:00,71.9,67.1,29.92,SW,227,1.0,2.0,85,0.00,,,0.00,Wunderground v.1.15,2013-06-01 03:10:00,
2013-05-31 23:20:00,71.2,66.8,29.92,SSE,157,1.0,3.0,86,0.00,,,0.00,Wunderground v.1.15,2013-06-01 03:20:00,
2013-05-31 23:30:00,70.6,66.5,29.92,SSE,157,1.0,1.0,87,0.00,,,0.00,Wunderground v.1.15,2013-06-01 03:30:00,
2013-05-31 23:40:00,70.3,66.9,29.92,SSW,204,1.0,2.0,89,0.00,,,0.00,Wunderground v.1.15,2013-06-01 03:40:00,
2013-05-31 23:50:00,69.7,66.6,29.92,SSW,204,1.0,2.0,90,0.00,,,0.00,Wunderground v.1.15,2013-06-01 03:50:00,